When you browse on this site, cookies collect data to enhance your experience and personalize the content and advertising you see.
Visit our Privacy Policy to learn more. By continuing to use the site, you agree to this use of cookies and data.
  • In Czech Republic
  • List of Countries
  • For 7 days
  • Water Temperature
  • Weather Map
  • Weather Widgets
  • user-avatar
    Login

    Hourly Weather Slawniow

    Today, 26 May, Tuesday

    Time Temperature Precipitation Wind Pressure Humidity
    00:00 +8°C° 0 mm 2 mps 739 mmHg 95%
    01:00 +7°C° 0 mm 2 mps 739 mmHg 96%
    02:00 +7°C° 0 mm 2 mps 740 mmHg 96%
    03:00 +7°C° 0 mm 2 mps 740 mmHg 97%
    04:00 +7°C° 0 mm 2 mps 740 mmHg 97%
    05:00 +8°C° 0.1 mm 3 mps 740 mmHg 96%
    06:00 +8°C° 0.1 mm 3 mps 740 mmHg 95%
    07:00 +8°C° 0.1 mm 4 mps 741 mmHg 94%
    08:00 +10°C° 0.1 mm 4 mps 741 mmHg 92%
    09:00 +10°C° 0.1 mm 4 mps 741 mmHg 90%
    10:00 +11°C° 0.1 mm 4 mps 741 mmHg 88%
    11:00 +12°C° 0.4 mm 5 mps 741 mmHg 83%
    12:00 +14°C° 0.4 mm 5 mps 741 mmHg 77%
    13:00 +15°C° 0.4 mm 5 mps 741 mmHg 71%
    14:00 +15°C° 0.5 mm 5 mps 741 mmHg 72%
    15:00 +15°C° 0.5 mm 5 mps 740 mmHg 72%
    16:00 +15°C° 0.5 mm 5 mps 740 mmHg 72%
    17:00 +14°C° 0.2 mm 5 mps 740 mmHg 76%
    18:00 +13°C° 0.2 mm 4 mps 741 mmHg 80%
    19:00 +12°C° 0.2 mm 3 mps 741 mmHg 84%
    20:00 +11°C° 0 mm 3 mps 741 mmHg 87%
    21:00 +10°C° 0 mm 3 mps 741 mmHg 90%
    22:00 +9°C° 0 mm 3 mps 741 mmHg 93%
    23:00 +9°C° 0 mm 3 mps 741 mmHg 94%

    Tomorrow, 27 May, Wednesday

    Time Temperature Precipitation Wind Pressure Humidity
    00:00 +9°C° 0 mm 3 mps 741 mmHg 95%
    01:00 +8°C° 0 mm 3 mps 741 mmHg 96%
    02:00 +8°C° 0 mm 3 mps 741 mmHg 97%
    03:00 +8°C° 0 mm 3 mps 741 mmHg 97%
    04:00 +8°C° 0 mm 3 mps 741 mmHg 98%
    05:00 +9°C° 0 mm 3 mps 741 mmHg 96%
    06:00 +10°C° 0 mm 3 mps 742 mmHg 94%
    07:00 +11°C° 0 mm 3 mps 742 mmHg 92%
    08:00 +12°C° 0.2 mm 4 mps 742 mmHg 85%
    09:00 +14°C° 0.2 mm 4 mps 742 mmHg 79%
    10:00 +16°C° 0.2 mm 5 mps 742 mmHg 72%
    11:00 +16°C° 0.4 mm 5 mps 741 mmHg 68%
    12:00 +17°C° 0.4 mm 5 mps 741 mmHg 65%
    13:00 +19°C° 0.4 mm 5 mps 741 mmHg 61%
    14:00 +17°C° 0.1 mm 5 mps 740 mmHg 61%
    15:00 +17°C° 0.1 mm 5 mps 740 mmHg 61%
    16:00 +17°C° 0.1 mm 5 mps 740 mmHg 60%
    17:00 +16°C° 0 mm 5 mps 740 mmHg 66%
    18:00 +15°C° 0 mm 4 mps 740 mmHg 72%
    19:00 +13°C° 0 mm 3 mps 739 mmHg 78%
    20:00 +12°C° 0 mm 3 mps 739 mmHg 81%
    21:00 +12°C° 0 mm 2 mps 739 mmHg 84%
    22:00 +10°C° 0 mm 2 mps 739 mmHg 87%
    23:00 +10°C° 0 mm 2 mps 739 mmHg 87%

    Day after tomorrow, 28 May, Thursday

    Time Temperature Precipitation Wind Pressure Humidity
    00:00 +9°C° 0 mm 2 mps 739 mmHg 88%
    01:00 +9°C° 0 mm 2 mps 739 mmHg 88%
    02:00 +9°C° 0 mm 2 mps 739 mmHg 89%
    03:00 +9°C° 0 mm 2 mps 739 mmHg 89%
    04:00 +8°C° 0 mm 3 mps 738 mmHg 89%
    05:00 +9°C° 0 mm 3 mps 738 mmHg 88%
    06:00 +11°C° 0 mm 3 mps 739 mmHg 86%
    07:00 +12°C° 0 mm 3 mps 739 mmHg 84%
    08:00 +12°C° 0.4 mm 4 mps 738 mmHg 82%
    09:00 +13°C° 0.4 mm 5 mps 738 mmHg 79%
    10:00 +13°C° 0.4 mm 6 mps 738 mmHg 77%
    11:00 +14°C° 0.1 mm 6 mps 738 mmHg 70%
    12:00 +15°C° 0.1 mm 6 mps 738 mmHg 63%
    13:00 +16°C° 0.1 mm 6 mps 737 mmHg 56%
    14:00 +16°C° 0 mm 6 mps 737 mmHg 57%
    15:00 +16°C° 0 mm 6 mps 737 mmHg 58%
    16:00 +16°C° 0 mm 5 mps 737 mmHg 59%
    17:00 +14°C° 0.3 mm 5 mps 737 mmHg 67%
    18:00 +13°C° 0.3 mm 4 mps 737 mmHg 75%
    19:00 +12°C° 0.3 mm 4 mps 737 mmHg 83%
    20:00 +11°C° 0 mm 4 mps 737 mmHg 86%
    21:00 +10°C° 0 mm 4 mps 737 mmHg 89%
    22:00 +8°C° 0 mm 4 mps 737 mmHg 92%
    23:00 +7°C° 0 mm 4 mps 737 mmHg 92%

    29 May, Friday

    Time Temperature Precipitation Wind Pressure Humidity
    00:00 +6°C° 0 mm 4 mps 737 mmHg 92%
    01:00 +5°C° 0 mm 3 mps 737 mmHg 92%
    02:00 +4°C° 0 mm 3 mps 737 mmHg 92%
    03:00 +4°C° 0 mm 3 mps 737 mmHg 91%
    04:00 +3°C° 0 mm 3 mps 737 mmHg 91%
    05:00 +4°C° 0 mm 4 mps 737 mmHg 86%
    06:00 +5°C° 0 mm 4 mps 737 mmHg 80%
    07:00 +6°C° 0 mm 4 mps 737 mmHg 75%
    08:00 +7°C° 0 mm 5 mps 737 mmHg 68%
    09:00 +9°C° 0 mm 5 mps 737 mmHg 62%
    10:00 +10°C° 0 mm 5 mps 738 mmHg 55%
    11:00 +12°C° 0 mm 5 mps 737 mmHg 54%
    12:00 +12°C° 0 mm 5 mps 737 mmHg 53%
    13:00 +13°C° 0 mm 5 mps 737 mmHg 52%
    14:00 +13°C° 0 mm 5 mps 736 mmHg 52%
    15:00 +13°C° 0 mm 5 mps 736 mmHg 53%
    16:00 +13°C° 0 mm 5 mps 735 mmHg 53%
    17:00 +12°C° 0 mm 4 mps 735 mmHg 60%
    18:00 +11°C° 0 mm 3 mps 735 mmHg 66%
    19:00 +10°C° 0 mm 2 mps 735 mmHg 72%
    20:00 +9°C° 0 mm 2 mps 735 mmHg 76%
    21:00 +8°C° 0 mm 2 mps 736 mmHg 79%
    22:00 +7°C° 0 mm 2 mps 736 mmHg 83%
    23:00 +6°C° 0 mm 2 mps 735 mmHg 85%

    30 May, Saturday

    Time Temperature Precipitation Wind Pressure Humidity
    00:00 +6°C° 0 mm 2 mps 735 mmHg 87%
    01:00 +5°C° 0 mm 2 mps 735 mmHg 89%
    02:00 +5°C° 0 mm 2 mps 735 mmHg 90%
    03:00 +5°C° 0 mm 2 mps 735 mmHg 91%
    04:00 +5°C° 0 mm 2 mps 735 mmHg 92%
    05:00 +6°C° 0 mm 2 mps 735 mmHg 87%
    06:00 +7°C° 0 mm 3 mps 735 mmHg 81%
    07:00 +8°C° 0 mm 3 mps 735 mmHg 76%
    08:00 +9°C° 0 mm 3 mps 735 mmHg 70%
    09:00 +10°C° 0 mm 3 mps 735 mmHg 64%
    10:00 +12°C° 0 mm 3 mps 735 mmHg 58%
    11:00 +12°C° 0 mm 3 mps 735 mmHg 58%
    12:00 +13°C° 0 mm 3 mps 735 mmHg 59%
    13:00 +13°C° 0 mm 4 mps 735 mmHg 59%
    14:00 +13°C° 0 mm 4 mps 735 mmHg 61%
    15:00 +13°C° 0 mm 4 mps 734 mmHg 63%
    16:00 +13°C° 0 mm 4 mps 734 mmHg 66%
    17:00 +12°C° 0 mm 3 mps 734 mmHg 72%
    18:00 +11°C° 0 mm 3 mps 734 mmHg 79%
    19:00 +10°C° 0 mm 2 mps 734 mmHg 86%
    20:00 +9°C° 0 mm 3 mps 734 mmHg 89%
    21:00 +8°C° 0 mm 3 mps 734 mmHg 92%
    22:00 +8°C° 0 mm 3 mps 734 mmHg 94%
    23:00 +8°C° 0 mm 3 mps 734 mmHg 95%

    31 May, Sunday

    Time Temperature Precipitation Wind Pressure Humidity
    00:00 +7°C° 0 mm 4 mps 733 mmHg 95%
    01:00 +7°C° 0 mm 4 mps 733 mmHg 96%
    02:00 +8°C° 0.8 mm 4 mps 732 mmHg 96%
    03:00 +8°C° 0.8 mm 4 mps 732 mmHg 96%
    04:00 +8°C° 0.8 mm 4 mps 732 mmHg 97%
    05:00 +8°C° 2.7 mm 4 mps 732 mmHg 97%
    06:00 +8°C° 2.7 mm 4 mps 732 mmHg 97%
    07:00 +9°C° 2.7 mm 3 mps 731 mmHg 97%
    08:00 +10°C° 1.2 mm 3 mps 731 mmHg 96%
    09:00 +10°C° 1.2 mm 3 mps 731 mmHg 96%
    10:00 +10°C° 1.2 mm 3 mps 731 mmHg 95%
    11:00 +11°C° 0.9 mm 4 mps 731 mmHg 91%
    12:00 +12°C° 0.9 mm 4 mps 731 mmHg 87%
    13:00 +14°C° 0.9 mm 4 mps 731 mmHg 84%
    14:00 +13°C° 1.1 mm 4 mps 731 mmHg 85%
    15:00 +13°C° 1.1 mm 4 mps 731 mmHg 86%
    16:00 +13°C° 1.1 mm 3 mps 731 mmHg 87%
    17:00 +12°C° 0.9 mm 3 mps 731 mmHg 89%
    18:00 +11°C° 0.9 mm 3 mps 730 mmHg 92%
    19:00 +11°C° 0.9 mm 3 mps 730 mmHg 94%
    20:00 +11°C° 0.8 mm 3 mps 730 mmHg 95%
    21:00 +10°C° 0.8 mm 3 mps 730 mmHg 95%
    22:00 +10°C° 0.8 mm 4 mps 730 mmHg 96%
    23:00 +10°C° 2 mm 4 mps 730 mmHg 97%
    Show more